Year,Month,Day,Hour,Minute,Value (Times are PST for temperature in C)
2017,07,23,00,00,13.60
2017,07,23,00,01,13.60
2017,07,23,00,02,13.60
2017,07,23,00,03,13.60
2017,07,23,00,04,13.60
2017,07,23,00,05,13.60
2017,07,23,00,06,13.60
2017,07,23,00,07,13.60
2017,07,23,00,08,13.60
2017,07,23,00,09,13.60
2017,07,23,00,10,13.60
2017,07,23,00,11,13.60
2017,07,23,00,12,13.60
2017,07,23,00,13,13.60
2017,07,23,00,14,13.60
2017,07,23,00,15,13.60
2017,07,23,00,16,13.60
2017,07,23,00,17,13.60
2017,07,23,00,18,13.60
2017,07,23,00,19,13.60
2017,07,23,00,20,13.60
2017,07,23,00,21,13.60
2017,07,23,00,22,13.60
2017,07,23,00,23,13.60
2017,07,23,00,24,13.60
2017,07,23,00,25,13.60
2017,07,23,00,26,13.60
2017,07,23,00,27,13.60
2017,07,23,00,28,13.60
2017,07,23,00,29,13.60
2017,07,23,00,30,13.70
2017,07,23,00,31,13.70
2017,07,23,00,32,13.70
2017,07,23,00,33,13.60
2017,07,23,00,34,13.70
2017,07,23,00,35,13.70
2017,07,23,00,36,13.60
2017,07,23,00,37,13.60
2017,07,23,00,38,13.70
2017,07,23,00,39,13.60
2017,07,23,00,40,13.60
2017,07,23,00,41,13.60
2017,07,23,00,42,13.60
2017,07,23,00,43,13.60
2017,07,23,00,44,13.60
2017,07,23,00,45,13.60
2017,07,23,00,46,13.60
2017,07,23,00,47,13.60
2017,07,23,00,48,13.60
2017,07,23,00,49,13.60
2017,07,23,00,50,13.60
2017,07,23,00,51,13.60
2017,07,23,00,52,13.60
2017,07,23,00,53,13.60
2017,07,23,00,54,13.60
2017,07,23,00,55,13.60
2017,07,23,00,56,13.60
2017,07,23,00,57,13.60
2017,07,23,00,58,13.60
2017,07,23,00,59,13.60
2017,07,23,01,00,13.60
2017,07,23,01,01,13.60
2017,07,23,01,02,13.60
2017,07,23,01,03,13.60
2017,07,23,01,04,13.60
2017,07,23,01,05,13.60
2017,07,23,01,06,13.60
2017,07,23,01,07,13.60
2017,07,23,01,08,13.60
2017,07,23,01,09,13.60
2017,07,23,01,10,13.60
2017,07,23,01,11,13.60
2017,07,23,01,12,13.60
2017,07,23,01,13,13.60
2017,07,23,01,14,13.60
2017,07,23,01,15,13.60
2017,07,23,01,16,13.60
2017,07,23,01,17,13.60
2017,07,23,01,18,13.60
2017,07,23,01,19,13.60
2017,07,23,01,20,13.60
2017,07,23,01,21,13.60
2017,07,23,01,22,13.60
2017,07,23,01,23,13.60
2017,07,23,01,24,13.60
2017,07,23,01,25,13.60
2017,07,23,01,26,13.60
2017,07,23,01,27,13.60
2017,07,23,01,28,13.60
2017,07,23,01,29,13.60
2017,07,23,01,30,13.60
2017,07,23,01,31,13.60
2017,07,23,01,32,13.60
2017,07,23,01,33,13.60
2017,07,23,01,34,13.60
2017,07,23,01,35,13.50
2017,07,23,01,36,13.50
2017,07,23,01,37,13.50
2017,07,23,01,38,13.50
2017,07,23,01,39,13.50
2017,07,23,01,40,13.50
2017,07,23,01,41,13.50
2017,07,23,01,42,13.50
2017,07,23,01,43,13.50
2017,07,23,01,44,13.50
2017,07,23,01,45,13.50
2017,07,23,01,46,13.50
2017,07,23,01,47,13.50
2017,07,23,01,48,13.50
2017,07,23,01,49,13.50
2017,07,23,01,50,13.50
2017,07,23,01,51,13.50
2017,07,23,01,52,13.50
2017,07,23,01,53,13.50
2017,07,23,01,54,13.50
2017,07,23,01,55,13.50
2017,07,23,01,56,13.50
2017,07,23,01,57,13.50
2017,07,23,01,58,13.50
2017,07,23,01,59,13.50
2017,07,23,02,00,13.50
2017,07,23,02,01,13.50
2017,07,23,02,02,13.50
2017,07,23,02,03,13.50
2017,07,23,02,04,13.50
2017,07,23,02,05,13.50
2017,07,23,02,06,13.50
2017,07,23,02,07,13.50
2017,07,23,02,08,13.50
2017,07,23,02,09,13.50
2017,07,23,02,10,13.50
2017,07,23,02,11,13.60
2017,07,23,02,12,13.60
2017,07,23,02,13,13.60
2017,07,23,02,14,13.60
2017,07,23,02,15,13.60
2017,07,23,02,16,13.60
2017,07,23,02,17,13.60
2017,07,23,02,18,13.60
2017,07,23,02,19,13.60
2017,07,23,02,20,13.60
2017,07,23,02,21,13.50
2017,07,23,02,22,13.50
2017,07,23,02,23,13.50
2017,07,23,02,24,13.50
2017,07,23,02,25,13.50
2017,07,23,02,26,13.50
2017,07,23,02,27,13.50
2017,07,23,02,28,13.50
2017,07,23,02,29,13.50
2017,07,23,02,30,13.50
2017,07,23,02,31,13.50
2017,07,23,02,32,13.50
2017,07,23,02,33,13.50
2017,07,23,02,34,13.50
2017,07,23,02,35,13.50
2017,07,23,02,36,13.50
2017,07,23,02,37,13.50
2017,07,23,02,38,13.50
2017,07,23,02,39,13.50
2017,07,23,02,40,13.50
2017,07,23,02,41,13.50
2017,07,23,02,42,13.50
2017,07,23,02,43,13.50
2017,07,23,02,44,13.50
2017,07,23,02,45,13.50
2017,07,23,02,46,13.50
2017,07,23,02,47,13.50
2017,07,23,02,48,13.50
2017,07,23,02,49,13.50
2017,07,23,02,50,13.50
2017,07,23,02,51,13.50
2017,07,23,02,52,13.50
2017,07,23,02,53,13.50
2017,07,23,02,54,13.50
2017,07,23,02,55,13.50
2017,07,23,02,56,13.50
2017,07,23,02,57,13.50
2017,07,23,02,58,13.50
2017,07,23,02,59,13.50
2017,07,23,03,00,13.50
2017,07,23,03,01,13.50
2017,07,23,03,02,13.50
2017,07,23,03,03,13.50
2017,07,23,03,04,13.50
2017,07,23,03,05,13.50
2017,07,23,03,06,13.50
2017,07,23,03,07,13.50
2017,07,23,03,08,13.50
2017,07,23,03,09,13.50
2017,07,23,03,10,13.50
2017,07,23,03,11,13.50
2017,07,23,03,12,13.50
2017,07,23,03,13,13.50
2017,07,23,03,14,13.50
2017,07,23,03,15,13.50
2017,07,23,03,16,13.40
2017,07,23,03,17,13.40
2017,07,23,03,18,13.40
2017,07,23,03,19,13.40
2017,07,23,03,20,13.40
2017,07,23,03,21,13.40
2017,07,23,03,22,13.40
2017,07,23,03,23,13.40
2017,07,23,03,24,13.40
2017,07,23,03,25,13.40
2017,07,23,03,26,13.40
2017,07,23,03,27,13.40
2017,07,23,03,28,13.40
2017,07,23,03,29,13.40
2017,07,23,03,30,13.40
2017,07,23,03,31,13.40
2017,07,23,03,32,13.40
2017,07,23,03,33,13.40
2017,07,23,03,34,13.40
2017,07,23,03,35,13.40
2017,07,23,03,36,13.40
2017,07,23,03,37,13.40
2017,07,23,03,38,13.40
2017,07,23,03,39,13.40
2017,07,23,03,40,13.40
2017,07,23,03,41,13.40
2017,07,23,03,42,13.40
2017,07,23,03,43,13.40
2017,07,23,03,44,13.40
2017,07,23,03,45,13.40
2017,07,23,03,46,13.40
2017,07,23,03,47,13.40
2017,07,23,03,48,13.40
2017,07,23,03,49,13.40
2017,07,23,03,50,13.40
2017,07,23,03,51,13.40
2017,07,23,03,52,13.40
2017,07,23,03,53,13.40
2017,07,23,03,54,13.40
2017,07,23,03,55,13.40
2017,07,23,03,56,13.40
2017,07,23,03,57,13.40
2017,07,23,03,58,13.40
2017,07,23,03,59,13.40
2017,07,23,04,00,13.40
2017,07,23,04,01,13.40
2017,07,23,04,02,13.40
2017,07,23,04,03,13.40
2017,07,23,04,04,13.30
2017,07,23,04,05,13.30
2017,07,23,04,06,13.30
2017,07,23,04,07,13.30
2017,07,23,04,08,13.30
2017,07,23,04,09,13.30
2017,07,23,04,10,13.30
2017,07,23,04,11,13.30
2017,07,23,04,12,13.30
2017,07,23,04,13,13.30
2017,07,23,04,14,13.30
2017,07,23,04,15,13.30
2017,07,23,04,16,13.30
2017,07,23,04,17,13.30
2017,07,23,04,18,13.30
2017,07,23,04,19,13.30
2017,07,23,04,20,13.30
2017,07,23,04,21,13.30
2017,07,23,04,22,13.30
2017,07,23,04,23,13.30
2017,07,23,04,24,13.30
2017,07,23,04,25,13.30
2017,07,23,04,26,13.30
2017,07,23,04,27,13.30
2017,07,23,04,28,13.30
2017,07,23,04,29,13.30
2017,07,23,04,30,13.30
2017,07,23,04,31,13.30
2017,07,23,04,32,13.30
2017,07,23,04,33,13.30
2017,07,23,04,34,13.30
2017,07,23,04,35,13.30
2017,07,23,04,36,13.30
2017,07,23,04,37,13.30
2017,07,23,04,38,13.30
2017,07,23,04,39,13.30
2017,07,23,04,40,13.20
2017,07,23,04,41,13.20
2017,07,23,04,42,13.20
2017,07,23,04,43,13.20
2017,07,23,04,44,13.20
2017,07,23,04,45,13.20
2017,07,23,04,46,13.20
2017,07,23,04,47,13.20
2017,07,23,04,48,13.20
2017,07,23,04,49,13.20
2017,07,23,04,50,13.20
2017,07,23,04,51,13.20
2017,07,23,04,52,13.20
2017,07,23,04,53,13.20
2017,07,23,04,54,13.20
2017,07,23,04,55,13.20
2017,07,23,04,56,13.20
2017,07,23,04,57,13.20
2017,07,23,04,58,13.20
2017,07,23,04,59,13.20
2017,07,23,05,00,13.20
2017,07,23,05,01,13.10
2017,07,23,05,02,13.10
2017,07,23,05,03,13.10
2017,07,23,05,04,13.10
2017,07,23,05,05,13.10
2017,07,23,05,06,13.10
2017,07,23,05,07,13.10
2017,07,23,05,08,13.10
2017,07,23,05,09,13.10
2017,07,23,05,10,13.10
2017,07,23,05,11,13.10
2017,07,23,05,12,13.10
2017,07,23,05,13,13.10
2017,07,23,05,14,13.10
2017,07,23,05,15,13.00
2017,07,23,05,16,13.10
2017,07,23,05,17,13.00
2017,07,23,05,18,13.00
2017,07,23,05,19,13.00
2017,07,23,05,20,13.00
2017,07,23,05,21,13.10
2017,07,23,05,22,13.10
2017,07,23,05,23,13.10
2017,07,23,05,24,13.10
2017,07,23,05,25,13.10
2017,07,23,05,26,13.10
2017,07,23,05,27,13.10
2017,07,23,05,28,13.00
2017,07,23,05,29,13.00
2017,07,23,05,30,13.00
2017,07,23,05,31,13.00
2017,07,23,05,32,13.00
2017,07,23,05,33,13.00
2017,07,23,05,34,13.00
2017,07,23,05,35,13.00
2017,07,23,05,36,13.00
2017,07,23,05,37,13.00
2017,07,23,05,38,13.00
2017,07,23,05,39,13.00
2017,07,23,05,40,13.00
2017,07,23,05,41,13.00
2017,07,23,05,42,13.00
2017,07,23,05,43,13.00
2017,07,23,05,44,13.00
2017,07,23,05,45,13.00
2017,07,23,05,46,13.00
2017,07,23,05,47,13.00
2017,07,23,05,48,12.90
2017,07,23,05,49,12.90
2017,07,23,05,50,12.90
2017,07,23,05,51,12.90
2017,07,23,05,52,12.90
2017,07,23,05,53,12.90
2017,07,23,05,54,12.90
2017,07,23,05,55,12.90
2017,07,23,05,56,12.90
2017,07,23,05,57,12.90
2017,07,23,05,58,12.90
2017,07,23,05,59,12.90
2017,07,23,06,00,12.90
2017,07,23,06,01,12.90
2017,07,23,06,02,12.90
2017,07,23,06,03,12.90
2017,07,23,06,04,12.90
2017,07,23,06,05,12.90
2017,07,23,06,06,12.80
2017,07,23,06,07,12.80
2017,07,23,06,08,12.80
2017,07,23,06,09,12.80
2017,07,23,06,10,12.80
2017,07,23,06,11,12.80
2017,07,23,06,12,12.80
2017,07,23,06,13,12.80
2017,07,23,06,14,12.80
2017,07,23,06,15,12.80
2017,07,23,06,16,12.80
2017,07,23,06,17,12.80
2017,07,23,06,18,12.80
2017,07,23,06,19,12.80
2017,07,23,06,20,12.70
2017,07,23,06,21,12.70
2017,07,23,06,22,12.70
2017,07,23,06,23,12.70
2017,07,23,06,24,12.70
2017,07,23,06,25,12.70
2017,07,23,06,26,12.70
2017,07,23,06,27,12.70
2017,07,23,06,28,12.70
2017,07,23,06,29,12.70
2017,07,23,06,30,12.70
2017,07,23,06,31,12.70
2017,07,23,06,32,12.70
2017,07,23,06,33,12.70
2017,07,23,06,34,12.70
2017,07,23,06,35,12.70
2017,07,23,06,36,12.70
2017,07,23,06,37,12.70
2017,07,23,06,38,12.60
2017,07,23,06,39,12.70
2017,07,23,06,40,12.70
2017,07,23,06,41,12.70
2017,07,23,06,42,12.60
2017,07,23,06,43,12.60
2017,07,23,06,44,12.60
2017,07,23,06,45,12.60
2017,07,23,06,46,12.70
2017,07,23,06,47,12.60
2017,07,23,06,48,12.60
2017,07,23,06,49,12.60
2017,07,23,06,50,12.60
2017,07,23,06,51,12.60
2017,07,23,06,52,12.60
2017,07,23,06,53,12.70
2017,07,23,06,54,12.60
2017,07,23,06,55,12.70
2017,07,23,06,56,12.70
2017,07,23,06,57,12.70
2017,07,23,06,58,12.70
2017,07,23,06,59,12.70
2017,07,23,07,00,12.70
2017,07,23,07,01,12.70
2017,07,23,07,02,12.70
2017,07,23,07,03,12.70
2017,07,23,07,04,12.70
2017,07,23,07,05,12.60
2017,07,23,07,06,12.60
2017,07,23,07,07,12.60
2017,07,23,07,08,12.60
2017,07,23,07,09,12.60
2017,07,23,07,10,12.60
2017,07,23,07,11,12.60
2017,07,23,07,12,12.60
2017,07,23,07,13,12.60
2017,07,23,07,14,12.60
2017,07,23,07,15,12.60
2017,07,23,07,16,12.60
2017,07,23,07,17,12.60
2017,07,23,07,18,12.60
2017,07,23,07,19,12.60
2017,07,23,07,20,12.60
2017,07,23,07,21,12.60
2017,07,23,07,22,12.60
2017,07,23,07,23,12.60
2017,07,23,07,24,12.60
2017,07,23,07,25,12.60
2017,07,23,07,26,12.60
2017,07,23,07,27,12.60
2017,07,23,07,28,12.60
2017,07,23,07,29,12.50
2017,07,23,07,30,12.50
2017,07,23,07,31,12.50
2017,07,23,07,32,12.50
2017,07,23,07,33,12.50
2017,07,23,07,34,12.50
2017,07,23,07,35,12.50
2017,07,23,07,36,12.40
2017,07,23,07,37,12.40
2017,07,23,07,38,12.40
2017,07,23,07,39,12.40
2017,07,23,07,40,12.40
2017,07,23,07,41,12.40
2017,07,23,07,42,12.40
2017,07,23,07,43,12.40
2017,07,23,07,44,12.40
2017,07,23,07,45,12.40
2017,07,23,07,46,12.40
2017,07,23,07,47,12.40
2017,07,23,07,48,12.40
2017,07,23,07,49,12.30
2017,07,23,07,50,12.30
2017,07,23,07,51,12.30
2017,07,23,07,52,12.30
2017,07,23,07,53,12.30
2017,07,23,07,54,12.30
2017,07,23,07,55,12.30
2017,07,23,07,56,12.30
2017,07,23,07,57,12.30
2017,07,23,07,58,12.30
2017,07,23,07,59,12.30
2017,07,23,08,00,12.30
2017,07,23,08,01,12.30
2017,07,23,08,02,12.30
2017,07,23,08,03,12.20
2017,07,23,08,04,12.20
2017,07,23,08,05,12.30
2017,07,23,08,06,12.20
2017,07,23,08,07,12.20
2017,07,23,08,08,12.20
2017,07,23,08,09,12.20
2017,07,23,08,10,12.20
2017,07,23,08,11,12.20
2017,07,23,08,12,12.20
2017,07,23,08,13,12.20
2017,07,23,08,14,12.20
2017,07,23,08,15,12.20
2017,07,23,08,16,12.20
2017,07,23,08,17,12.20
2017,07,23,08,18,12.20
2017,07,23,08,19,12.20
2017,07,23,08,20,12.20
2017,07,23,08,21,12.20
2017,07,23,08,22,12.20
2017,07,23,08,23,12.20
2017,07,23,08,24,12.20
2017,07,23,08,25,12.20
2017,07,23,08,26,12.20
2017,07,23,08,27,12.20
2017,07,23,08,28,12.20
2017,07,23,08,29,12.20
2017,07,23,08,30,12.20
2017,07,23,08,31,12.20
2017,07,23,08,32,12.20
2017,07,23,08,33,12.10
2017,07,23,08,34,12.10
2017,07,23,08,35,12.10
2017,07,23,08,36,12.10
2017,07,23,08,37,12.10
2017,07,23,08,38,12.10
2017,07,23,08,39,12.10
2017,07,23,08,40,12.10
2017,07,23,08,41,12.10
2017,07,23,08,42,12.10
2017,07,23,08,43,12.10
2017,07,23,08,44,12.10
2017,07,23,08,45,12.10
2017,07,23,08,46,12.10
2017,07,23,08,47,12.10
2017,07,23,08,48,12.10
2017,07,23,08,49,12.10
2017,07,23,08,50,12.20
2017,07,23,08,51,12.20
2017,07,23,08,52,12.20
2017,07,23,08,53,12.20
2017,07,23,08,54,12.20
2017,07,23,08,55,12.20
2017,07,23,08,56,12.20
2017,07,23,08,57,12.20
2017,07,23,08,58,12.10
2017,07,23,08,59,12.10
2017,07,23,09,00,12.10
2017,07,23,09,01,12.10
2017,07,23,09,02,12.10
2017,07,23,09,03,12.20
2017,07,23,09,04,12.20
2017,07,23,09,05,12.20
2017,07,23,09,06,12.20
2017,07,23,09,07,12.20
2017,07,23,09,08,12.20
2017,07,23,09,09,12.20
2017,07,23,09,10,12.20
2017,07,23,09,11,12.20
2017,07,23,09,12,12.20
2017,07,23,09,13,12.20
2017,07,23,09,14,12.20
2017,07,23,09,15,12.20
2017,07,23,09,16,12.20
2017,07,23,09,17,12.20
2017,07,23,09,18,12.20
2017,07,23,09,19,12.20
2017,07,23,09,20,12.20
2017,07,23,09,21,12.20
2017,07,23,09,22,12.20
2017,07,23,09,23,12.20
2017,07,23,09,24,12.20
2017,07,23,09,25,12.20
2017,07,23,09,26,12.20
2017,07,23,09,27,12.20
2017,07,23,09,28,12.20
2017,07,23,09,29,12.20
2017,07,23,09,30,12.20
2017,07,23,09,31,12.20
2017,07,23,09,32,12.20
2017,07,23,09,33,12.30
2017,07,23,09,34,12.30
2017,07,23,09,35,12.40
2017,07,23,09,36,12.40
2017,07,23,09,37,12.40
2017,07,23,09,38,12.50
2017,07,23,09,39,12.50
2017,07,23,09,40,12.50
2017,07,23,09,41,12.50
2017,07,23,09,42,12.50
2017,07,23,09,43,12.50
2017,07,23,09,44,12.60
2017,07,23,09,45,12.60
2017,07,23,09,46,12.60
2017,07,23,09,47,12.70
2017,07,23,09,48,12.80
2017,07,23,09,49,12.80
2017,07,23,09,50,12.80
2017,07,23,09,51,12.80
2017,07,23,09,52,12.80
2017,07,23,09,53,12.80
2017,07,23,09,54,12.90
2017,07,23,09,55,12.90
2017,07,23,09,56,12.80
2017,07,23,09,57,12.90
2017,07,23,09,58,12.90
2017,07,23,09,59,12.90
2017,07,23,10,00,13.00
2017,07,23,10,01,13.10
2017,07,23,10,02,13.10
2017,07,23,10,03,13.20
2017,07,23,10,04,13.30
2017,07,23,10,05,13.30
2017,07,23,10,06,13.40
2017,07,23,10,07,13.50
2017,07,23,10,08,13.50
2017,07,23,10,09,13.70
2017,07,23,10,10,13.80
2017,07,23,10,11,13.90
2017,07,23,10,12,14.00
2017,07,23,10,13,14.10
2017,07,23,10,14,14.20
2017,07,23,10,15,14.30
2017,07,23,10,16,14.40
2017,07,23,10,17,14.40
2017,07,23,10,18,14.40
2017,07,23,10,19,14.30
2017,07,23,10,20,14.60
2017,07,23,10,21,14.70
2017,07,23,10,22,14.80
2017,07,23,10,23,14.90
2017,07,23,10,24,15.00
2017,07,23,10,25,15.10
2017,07,23,10,26,15.10
2017,07,23,10,27,15.20
2017,07,23,10,28,15.30
2017,07,23,10,29,15.50
2017,07,23,10,30,15.60
2017,07,23,10,31,15.80
2017,07,23,10,32,15.90
2017,07,23,10,33,16.00
2017,07,23,10,34,16.10
2017,07,23,10,35,16.20
2017,07,23,10,36,16.20
2017,07,23,10,37,16.40
2017,07,23,10,38,16.60
2017,07,23,10,39,16.70
2017,07,23,10,40,16.90
2017,07,23,10,41,16.90
2017,07,23,10,42,16.90
2017,07,23,10,43,16.90
2017,07,23,10,44,17.00
2017,07,23,10,45,17.10
2017,07,23,10,46,17.00
2017,07,23,10,47,17.10
2017,07,23,10,48,17.10
2017,07,23,10,49,17.10
2017,07,23,10,50,17.10
2017,07,23,10,51,17.10
2017,07,23,10,52,17.10
2017,07,23,10,53,17.20
2017,07,23,10,54,17.20
2017,07,23,10,55,17.20
2017,07,23,10,56,17.20
2017,07,23,10,57,17.30
2017,07,23,10,58,17.50
2017,07,23,10,59,17.60
2017,07,23,11,00,17.70
2017,07,23,11,01,17.80
2017,07,23,11,02,17.80
2017,07,23,11,03,17.90
2017,07,23,11,04,17.90
2017,07,23,11,05,17.90
2017,07,23,11,06,17.90
2017,07,23,11,07,17.90
2017,07,23,11,08,17.90
2017,07,23,11,09,18.00
2017,07,23,11,10,18.00
2017,07,23,11,11,18.10
2017,07,23,11,12,18.20
2017,07,23,11,13,18.20
2017,07,23,11,14,18.20
2017,07,23,11,15,18.20
2017,07,23,11,16,18.20
2017,07,23,11,17,18.30
2017,07,23,11,18,18.20
2017,07,23,11,19,18.20
2017,07,23,11,20,18.10
2017,07,23,11,21,18.10
2017,07,23,11,22,18.20
2017,07,23,11,23,18.20
2017,07,23,11,24,18.20
2017,07,23,11,25,18.20
2017,07,23,11,26,18.30
2017,07,23,11,27,18.40
2017,07,23,11,28,18.60
2017,07,23,11,29,18.70
2017,07,23,11,30,18.80
2017,07,23,11,31,18.80
2017,07,23,11,32,18.80
2017,07,23,11,33,18.80
2017,07,23,11,34,18.80
2017,07,23,11,35,18.70
2017,07,23,11,36,18.70
2017,07,23,11,37,18.60
2017,07,23,11,38,18.60
2017,07,23,11,39,18.70
2017,07,23,11,40,18.70
2017,07,23,11,41,18.70
2017,07,23,11,42,18.70
2017,07,23,11,43,18.70
2017,07,23,11,44,18.70
2017,07,23,11,45,18.70
2017,07,23,11,46,18.70
2017,07,23,11,47,18.70
2017,07,23,11,48,18.80
2017,07,23,11,49,18.80
2017,07,23,11,50,18.90
2017,07,23,11,51,19.10
2017,07,23,11,52,19.20
2017,07,23,11,53,19.20
2017,07,23,11,54,19.30
2017,07,23,11,55,19.30
2017,07,23,11,56,19.40
2017,07,23,11,57,19.40
2017,07,23,11,58,19.40
2017,07,23,11,59,19.40
2017,07,23,12,00,19.40
2017,07,23,12,01,19.40
2017,07,23,12,02,19.50
2017,07,23,12,03,19.50
2017,07,23,12,04,19.50
2017,07,23,12,05,19.60
2017,07,23,12,06,19.60
2017,07,23,12,07,19.60
2017,07,23,12,08,19.60
2017,07,23,12,09,19.60
2017,07,23,12,10,19.70
2017,07,23,12,11,19.60
2017,07,23,12,12,19.60
2017,07,23,12,13,19.60
2017,07,23,12,14,19.60
2017,07,23,12,15,19.60
2017,07,23,12,16,19.60
2017,07,23,12,17,19.60
2017,07,23,12,18,19.70
2017,07,23,12,19,19.80
2017,07,23,12,20,19.80
2017,07,23,12,21,19.90
2017,07,23,12,22,20.00
2017,07,23,12,23,20.00
2017,07,23,12,24,20.10
2017,07,23,12,25,20.10
2017,07,23,12,26,20.10
2017,07,23,12,27,20.10
2017,07,23,12,28,20.10
2017,07,23,12,29,20.10
2017,07,23,12,30,20.10
2017,07,23,12,31,20.10
2017,07,23,12,32,20.10
2017,07,23,12,33,20.10
2017,07,23,12,34,20.10
2017,07,23,12,35,20.10
2017,07,23,12,36,20.00
2017,07,23,12,37,19.90
2017,07,23,12,38,19.90
2017,07,23,12,39,19.90
2017,07,23,12,40,19.90
2017,07,23,12,41,20.00
2017,07,23,12,42,20.10
2017,07,23,12,43,20.10
2017,07,23,12,44,20.20
2017,07,23,12,45,20.20
2017,07,23,12,46,20.20
2017,07,23,12,47,20.30
2017,07,23,12,48,20.30
2017,07,23,12,49,20.30
2017,07,23,12,50,20.40
2017,07,23,12,51,20.30
2017,07,23,12,52,20.30
2017,07,23,12,53,20.30
2017,07,23,12,54,20.30
2017,07,23,12,55,20.20
2017,07,23,12,56,20.20
2017,07,23,12,57,20.20
2017,07,23,12,58,20.20
2017,07,23,12,59,20.20
2017,07,23,13,00,20.20
2017,07,23,13,01,20.20
2017,07,23,13,02,20.20
2017,07,23,13,03,20.30
2017,07,23,13,04,20.30
2017,07,23,13,05,20.30
2017,07,23,13,06,20.30
2017,07,23,13,07,20.40
2017,07,23,13,08,20.40
2017,07,23,13,09,20.50
2017,07,23,13,10,20.50
2017,07,23,13,11,20.60
2017,07,23,13,12,20.60
2017,07,23,13,13,20.60
2017,07,23,13,14,20.70
2017,07,23,13,15,20.70
2017,07,23,13,16,20.80
2017,07,23,13,17,20.70
2017,07,23,13,18,20.70
2017,07,23,13,19,20.70
2017,07,23,13,20,20.70
2017,07,23,13,21,20.70
2017,07,23,13,22,20.70
2017,07,23,13,23,20.80
2017,07,23,13,24,20.80
2017,07,23,13,25,20.80
2017,07,23,13,26,20.80
2017,07,23,13,27,20.80
2017,07,23,13,28,20.80
2017,07,23,13,29,20.80
2017,07,23,13,30,20.80
2017,07,23,13,31,20.90
2017,07,23,13,32,20.90
2017,07,23,13,33,20.90
2017,07,23,13,34,20.90
2017,07,23,13,35,20.90
2017,07,23,13,36,20.90
2017,07,23,13,37,21.00
2017,07,23,13,38,21.10
2017,07,23,13,39,21.10
2017,07,23,13,40,21.00
2017,07,23,13,41,21.00
2017,07,23,13,42,21.10
2017,07,23,13,43,21.10
2017,07,23,13,44,21.00
2017,07,23,13,45,21.00
2017,07,23,13,46,21.10
2017,07,23,13,47,21.10
2017,07,23,13,48,21.10
2017,07,23,13,49,21.10
2017,07,23,13,50,21.20
2017,07,23,13,51,21.20
2017,07,23,13,52,21.20
2017,07,23,13,53,21.20
2017,07,23,13,54,21.30
2017,07,23,13,55,21.30
2017,07,23,13,56,21.30
2017,07,23,13,57,21.30
2017,07,23,13,58,21.30
2017,07,23,13,59,21.20
2017,07,23,14,00,21.20
2017,07,23,14,01,21.30
2017,07,23,14,02,21.30
2017,07,23,14,03,21.20
2017,07,23,14,04,21.30
2017,07,23,14,05,21.30
2017,07,23,14,06,21.20
2017,07,23,14,07,21.20
2017,07,23,14,08,21.20
2017,07,23,14,09,21.20
2017,07,23,14,10,21.30
2017,07,23,14,11,21.30
2017,07,23,14,12,21.30
2017,07,23,14,13,21.40
2017,07,23,14,14,21.40
2017,07,23,14,15,21.40
2017,07,23,14,16,21.40
2017,07,23,14,17,21.50
2017,07,23,14,18,21.50
2017,07,23,14,19,21.60
2017,07,23,14,20,21.60
2017,07,23,14,21,21.60
2017,07,23,14,22,21.60
2017,07,23,14,23,21.60
2017,07,23,14,24,21.70
2017,07,23,14,25,21.70
2017,07,23,14,26,21.70
2017,07,23,14,27,21.70
2017,07,23,14,28,21.70
2017,07,23,14,29,21.70
2017,07,23,14,30,21.70
2017,07,23,14,31,21.80
2017,07,23,14,32,21.80
2017,07,23,14,33,21.80
2017,07,23,14,34,21.80
2017,07,23,14,35,21.80
2017,07,23,14,36,21.70
2017,07,23,14,37,21.70
2017,07,23,14,38,21.70
2017,07,23,14,39,21.70
2017,07,23,14,40,21.70
2017,07,23,14,41,21.80
2017,07,23,14,42,21.80
2017,07,23,14,43,21.80
2017,07,23,14,44,21.90
2017,07,23,14,45,21.90
2017,07,23,14,46,22.00
2017,07,23,14,47,22.00
2017,07,23,14,48,22.10
2017,07,23,14,49,22.10
2017,07,23,14,50,22.20
2017,07,23,14,51,22.20
2017,07,23,14,52,22.20
2017,07,23,14,53,22.10
2017,07,23,14,54,22.10
2017,07,23,14,55,22.00
2017,07,23,14,56,22.00
2017,07,23,14,57,22.00
2017,07,23,14,58,21.90
2017,07,23,14,59,21.90
2017,07,23,15,00,21.80
2017,07,23,15,01,21.90
2017,07,23,15,02,21.90
2017,07,23,15,03,22.00
2017,07,23,15,04,22.10
2017,07,23,15,05,22.10
2017,07,23,15,06,22.10
2017,07,23,15,07,22.00
2017,07,23,15,08,22.10
2017,07,23,15,09,22.20
2017,07,23,15,10,22.20
2017,07,23,15,11,22.20
2017,07,23,15,12,22.20
2017,07,23,15,13,22.20
2017,07,23,15,14,22.20
2017,07,23,15,15,22.20
2017,07,23,15,16,22.20
2017,07,23,15,17,22.20
2017,07,23,15,18,22.10
2017,07,23,15,19,22.10
2017,07,23,15,20,22.10
2017,07,23,15,21,22.10
2017,07,23,15,22,22.10
2017,07,23,15,23,22.10
2017,07,23,15,24,22.20
2017,07,23,15,25,22.20
2017,07,23,15,26,22.30
2017,07,23,15,27,22.40
2017,07,23,15,28,22.40
2017,07,23,15,29,22.30
2017,07,23,15,30,22.30
2017,07,23,15,31,22.30
2017,07,23,15,32,22.20
2017,07,23,15,33,22.30
2017,07,23,15,34,22.30
2017,07,23,15,35,22.30
2017,07,23,15,36,22.30
2017,07,23,15,37,22.30
2017,07,23,15,38,22.30
2017,07,23,15,39,22.20
2017,07,23,15,40,22.20
2017,07,23,15,41,22.30
2017,07,23,15,42,22.40
2017,07,23,15,43,22.50
2017,07,23,15,44,22.60
2017,07,23,15,45,22.50
2017,07,23,15,46,22.50
2017,07,23,15,47,22.50
2017,07,23,15,48,22.50
2017,07,23,15,49,22.50
2017,07,23,15,50,22.60
2017,07,23,15,51,22.60
2017,07,23,15,52,22.60
2017,07,23,15,53,22.60
2017,07,23,15,54,22.60
2017,07,23,15,55,22.60
2017,07,23,15,56,22.60
2017,07,23,15,57,22.60
2017,07,23,15,58,22.60
2017,07,23,15,59,22.60
2017,07,23,16,00,22.70
2017,07,23,16,01,22.70
2017,07,23,16,02,22.80
2017,07,23,16,03,22.80
2017,07,23,16,04,22.70
2017,07,23,16,05,22.70
2017,07,23,16,06,22.70
2017,07,23,16,07,22.80
2017,07,23,16,08,22.80
2017,07,23,16,09,22.80
2017,07,23,16,10,22.80
2017,07,23,16,11,22.90
2017,07,23,16,12,23.00
2017,07,23,16,13,23.00
2017,07,23,16,14,23.00
2017,07,23,16,15,23.10
2017,07,23,16,16,23.10
2017,07,23,16,17,23.00
2017,07,23,16,18,23.00
2017,07,23,16,19,23.00
2017,07,23,16,20,23.10
2017,07,23,16,21,23.00
2017,07,23,16,22,23.00
2017,07,23,16,23,23.00
2017,07,23,16,24,23.10
2017,07,23,16,25,23.10
2017,07,23,16,26,23.10
2017,07,23,16,27,23.20
2017,07,23,16,28,23.10
2017,07,23,16,29,23.00
2017,07,23,16,30,22.90
2017,07,23,16,31,22.90
2017,07,23,16,32,22.90
2017,07,23,16,33,23.00
2017,07,23,16,34,23.00
2017,07,23,16,35,23.10
2017,07,23,16,36,23.10
2017,07,23,16,37,23.20
2017,07,23,16,38,23.20
2017,07,23,16,39,23.20
2017,07,23,16,40,23.20
2017,07,23,16,41,23.30
2017,07,23,16,42,23.30
2017,07,23,16,43,23.30
2017,07,23,16,44,23.30
2017,07,23,16,45,23.30
2017,07,23,16,46,23.30
2017,07,23,16,47,23.30
2017,07,23,16,48,23.30
2017,07,23,16,49,23.30
2017,07,23,16,50,23.20
2017,07,23,16,51,23.10
2017,07,23,16,52,23.00
2017,07,23,16,53,22.90
2017,07,23,16,54,22.90
2017,07,23,16,55,23.00
2017,07,23,16,56,23.00
2017,07,23,16,57,23.00
2017,07,23,16,58,23.10
2017,07,23,16,59,23.10
2017,07,23,17,00,23.10
2017,07,23,17,01,23.20
2017,07,23,17,02,23.20
2017,07,23,17,03,23.20
2017,07,23,17,04,23.20
2017,07,23,17,05,23.20
2017,07,23,17,06,23.20
2017,07,23,17,07,23.20
2017,07,23,17,08,23.20
2017,07,23,17,09,23.20
2017,07,23,17,10,23.20
2017,07,23,17,11,23.20
2017,07,23,17,12,23.20
2017,07,23,17,13,23.20
2017,07,23,17,14,23.20
2017,07,23,17,15,23.30
2017,07,23,17,16,23.30
2017,07,23,17,17,23.30
2017,07,23,17,18,23.30
2017,07,23,17,19,23.20